sat.trackr.live / text

‹ back to catalog

2024-199AK

NORAD 61768 · 2024-199AK

PAYLOAD ACTIVE UNKNOWN

§ Identity

Operator
Country
TBD
Launch date
2024-11-04
Launch site
VOSTO
Launch vehicle
Mass (kg)
RCS (m²)

External: N2YO · Heavens-Above · Gunter

§ Orbital elements

Epoch: 2026-09-22T21:55:48.732672Z

Period
92.68 min
Inclination
97.2790°
Eccentricity
0.0002908
Mean motion
15.53731125 rev/d
Perigee alt
403.9 km
Apogee alt
407.8 km
Semi-major
6,784.0 km
B*
2.9251e-4
RAAN
142.0650°
Arg perigee
307.9921°
Mean anomaly
52.1070°
Rev number
14,949

§ Raw data

2024-199AK1 61768U 24199AK  26265.91375848  .00018647  00000+0  29251-3 0  99962 61768  97.2790 142.0650 0002908 307.9921  52.1070 15.53731125149497

JSON: /api/v1/satellites/61768 · /tle

For live sub-satellite position, see the globe view (requires WebGL).

§ Visibility from observer

Set your observer location to see the next 7 days of passes ≥ 10°. The values pass through the URL so the page stays shareable.

No JS? Fill the form by hand. The geolocation button needs JavaScript.